Dati Storici

Data ora Umidita' aria (%) Temperatura aria (°C) Rad globale (W/m²) Gonioanemometro (°) Tacoanemometro (m/s) Pioggia (mm)
23-06-2020 16:10 43.2 % 29.863 127.448 2.236 0 0
23-06-2020 16:00 44.4 % 29.049 81.764 1.588 0 0
23-06-2020 15:50 43.4 % 29.323 110.611 2.883 0 0
23-06-2020 15:40 42.3 % 29.376 148.955 2.039 0 0
23-06-2020 15:30 43.4 % 28.596 115.003 2.698 0 0
23-06-2020 15:20 45.3 % 29.085 99.962 2.039 0 0
23-06-2020 15:10 42.8 % 28.742 117.019 2.903 0 0
23-06-2020 15:00 43.2 % 28.716 138.111 5.094 0 0
23-06-2020 14:50 44 % 28.929 115.105 2.218 0 0
23-06-2020 14:40 44.3 % 29.234 97.798 3.801 0 0
23-06-2020 14:30 41.8 % 28.971 128.143 2.792 0 0
23-06-2020 14:20 37.8 % 30.166 84.364 3.88 0 0
23-06-2020 14:10 38 % 30.386 158.658 1.88 0 0
23-06-2020 14:00 34.6 % 29.448 168.267 2.552 0 0
23-06-2020 13:50 35 % 30.022 141.97 1.96 0 0
23-06-2020 13:40 36 % 30.008 197.459 0.998 0 0
23-06-2020 13:30 34.4 % 29.714 145.981 2.238 0 0
23-06-2020 13:20 36.7 % 29.298 84.244 1.096 0 0
23-06-2020 13:10 35.4 % 29.352 197.266 2.171 0 0
23-06-2020 13:00 36.6 % 28.76 191.568 3.572 0 0

I dati sono presentati in modo automatico a scopo informativo. In seguito a verifica i dati possono subire modifiche o essere invalidati e non riportati negli archivi definitivi.